Temperature
19 20 19 19 18 18 17 17 17 17 17 17 17 17 17 17 16 16 16 16 16 16 16 16 16 16 16 16 15 15 15 15 15 15 15 15 15 15 15 14 14 14 14
19 19 19 19 18 17 17 17 17 17 16 16 16 16 16 16 16 16 16 16 16 16 15 15 15 15 15 15 15 15 15 15 15 15 15 15 15 15 14 14 14 14 14
19 19 19 18 18 17 17 17 17 16 16 16 16 16 16 16 16 16 16 16 15 15 15 15 15 15 15 15 15 15 15 15 15 15 15 14 14 14 14 14 14 14 14
19 19 18 18 18 17 17 17 16 16 16 16 16 16 16 16 16 16 15 15 15 15 15 15 15 15 15 15 15 15 15 14 14 14 14 14 14 14 14 14 14 14 13
19 18 18 18 18 17 17 17 16 16 16 16 16 16 16 16 15 15 15 15 15 15 15 15 15 15 15 15 15 15 14 14 14 14 14 14 14 13 13 14 14 13 13
18 18 18 18 17 17 17 17 16 16 16 16 16 16 16 16 15 15 15 15 15 15 15 15 15 15 15 15 15 14 14 14 14 14 13 13 13 13 13 13 13 13 13
18 18 18 17 17 17 17 17 16 16 16 16 16 16 16 15 15 15 15 15 15 15 15 15 15 14 14 14 14 14 14 14 14 14 13 13 13 13 13 13 13 13 13
18 17 18 17 17 17 17 17 16 16 16 16 16 16 15 15 15 15 15 15 15 15 15 14 14 14 14 14 14 14 14 14 13 13 13 13 13 13 13 13 13 13 12
17 17 17 17 17 17 17 17 16 16 16 16 15 15 15 15 15 15 15 14 14 14 14 14 14 14 14 14 14 14 14 14 13 13 13 13 13 13 13 12 12 12 12
17 17 17 17 16 17 16 16 16 16 16 16 15 15 15 15 15 15 14 14 14 14 14 14 14 14 14 14 14 14 13 13 13 13 13 13 13 13 13 13 12 12 12
16 16 16 16 16 16 16 16 16 16 15 15 15 15 15 15 14 14 14 14 14 14 14 14 14 14 14 13 13 13 13 13 13 13 13 13 13 13 13 13 12 12 12
16 16 16 16 16 16 15 15 15 15 15 15 15 15 15 14 14 14 14 14 14 14 14 14 14 14 13 13 13 13 13 13 13 13 12 12 13 12 12 12 12 12 12
16 16 15 15 15 15 15 15 15 15 15 15 15 15 14 14 14 14 14 14 14 14 13 13 13 13 13 13 13 13 13 13 12 12 12 12 12 12 12 12 12 12 12
16 16 15 15 15 15 15 15 15 14 14 14 14 14 14 14 14 14 14 14 14 13 13 13 13 13 13 13 13 13 13 12 12 12 12 12 12 12 12 12 12 12 12
16 15 15 15 15 15 15 14 14 14 14 14 14 14 14 14 13 14 14 13 13 13 13 13 13 12 12 12 12 12 12 12 12 12 12 12 12 12 12 12 12 12 12
15 15 15 15 15 15 15 14 14 14 14 14 14 14 14 13 13 13 13 13 13 13 13 13 12 12 12 12 12 12 12 12 12 12 12 12 12 12 12 12 12 12 12
15 15 15 15 15 14 14 14 14 14 13 13 14 14 13 13 13 13 13 13 13 12 12 12 12 12 11 11 11 12 12 12 12 12 12 12 12 12 12 12 12 12 12
15 15 15 14 14 14 14 14 13 13 13 13 13 13 13 13 13 13 13 13 12 12 12 12 11 11 11 11 11 11 11 11 11 11 11 11 11 11 12 12 12 12 12
14 14 14 14 14 14 13 13 13 13 13 13 13 13 13 13 13 13 13 12 12 12 11 11 11 11 11 11 11 11 11 11 11 11 11 11 11 11 11 11 12 12 12
14 14 14 14 14 13 13 13 13 13 12 13 12 12 13 12 12 12 12 12 12 11 11 11 11 11 11 11 11 11 11 11 11 11 11 11 11 11 11 11 11 11 11
14 14 13 13 13 13 13 13 12 12 12 12 12 12 12 12 12 12 12 11 11 11 11 11 11 10 10 10 10 10 10 10 11 11 11 11 11 11 11 11 11 11 11
13 13 13 13 13 13 12 12 12 12 12 12 12 12 12 12 11 11 11 11 11 11 11 10 10 10 10 10 9 9 9 10 10 11 11 11 11 11 10 11 11 11 11
13 13 13 12 12 12 12 12 12 11 11 11 11 11 11 11 11 11 11 11 10 10 10 10 10 10 9 9 9 9 9 9 10 10 10 10 10 10 10 10 10 10 10
12 12 12 12 12 12 12 11 11 11 11 11 11 11 11 11 10 10 10 10 10 10 10 9 9 9 9 9 9 9 9 9 9 9 9 10 10 10 10 10 10 10 10
12 12 11 11 11 11 11 11 11 11 11 11 10 10 10 10 10 10 9 9 9 9 9 9 9 9 9 9 9 9 8 9 9 9 8 9 9 9 10 10 10 10 10
11 11 11 11 11 11 11 11 11 10 10 10 10 10 10 10 9 9 9 9 9 9 8 8 8 8 8 8 8 8 8 8 8 8 8 8 9 9 9 9 9 9 9
Wind_Speed
5 10 12 10 9 9 9 8 7 7 7 8 7 7 7 7 7 7 7 7 7 7 7 7 7 7 7 7 8 9 10 10 11 11 11 10 10 9 9 9 8 9 11
7 11 13 10 9 9 9 8 7 7 7 7 7 7 7 7 6 6 7 7 7 6 6 7 7 7 7 7 8 9 10 10 10 10 10 9 9 9 9 8 9 9 10
8 11 11 10 9 8 8 8 7 7 6 6 7 7 7 7 6 6 6 7 6 6 6 6 6 6 7 7 8 8 8 9 8 8 7 7 9 9 9 9 9 9 9
8 11 11 10 9 8 8 7 7 7 6 6 6 7 6 6 6 6 6 7 6 6 6 6 6 6 6 6 7 7 7 6 6 5 4 6 8 10 9 8 8 8 8
6 9 12 12 9 8 7 7 7 6 6 6 6 6 6 6 6 6 6 6 6 6 6 5 5 5 6 6 6 6 6 5 4 4 2 4 7 9 9 8 7 7 7
5 7 12 13 10 9 8 7 7 7 7 6 6 6 6 6 6 6 7 6 6 6 6 5 5 5 5 6 6 6 6 5 4 4 3 5 7 9 8 7 7 6 6
4 6 10 12 11 9 8 7 7 7 7 7 6 6 6 6 6 6 6 6 6 6 6 6 6 6 5 6 6 6 6 5 5 3 3 5 8 9 8 7 6 6 6
4 4 8 11 10 9 9 8 8 8 8 7 7 7 7 7 7 7 7 7 7 7 6 6 6 6 6 6 7 7 6 6 6 4 3 6 9 9 8 7 7 6 6
3 3 4 7 8 9 8 9 8 8 8 8 8 9 8 8 8 8 8 8 8 8 7 7 7 7 7 7 8 8 7 8 7 4 4 6 10 10 9 8 8 7 6
1 2 3 4 6 7 8 9 9 9 9 9 9 9 9 9 9 9 9 9 10 9 9 8 8 8 8 9 9 10 9 8 8 6 5 8 11 11 10 10 9 8 8
1 1 3 3 3 5 7 8 9 8 8 9 9 10 10 9 9 9 10 11 11 11 10 10 9 9 8 8 10 11 10 8 8 6 6 10 12 12 11 11 10 10 9
3 2 2 3 3 2 3 5 6 7 7 8 7 8 8 8 8 8 9 12 13 12 11 10 10 9 8 7 9 11 9 10 9 7 8 12 13 12 12 12 12 11 11
3 2 2 3 2 3 2 2 2 3 4 6 7 7 7 6 5 4 4 7 9 10 8 8 8 8 8 7 7 8 9 9 8 7 9 13 14 14 14 14 14 13 13
2 3 3 3 3 3 2 2 2 2 2 3 5 7 5 3 3 3 3 4 5 6 6 6 5 7 8 8 8 8 8 7 7 7 10 14 14 15 16 16 15 15 15
2 2 3 3 3 3 3 3 3 3 3 4 4 5 5 3 4 4 3 4 5 5 5 5 5 6 6 6 7 7 7 7 7 7 9 15 15 15 16 16 16 16 16
2 2 2 3 3 3 3 3 3 3 3 3 3 4 5 4 4 4 4 4 4 5 5 5 6 6 5 5 6 6 6 7 7 7 9 13 16 16 17 17 17 18 17
2 2 2 3 3 3 3 4 3 3 3 3 3 4 4 4 4 4 4 4 4 5 5 4 5 4 4 5 6 6 5 6 6 7 8 10 13 16 17 18 18 19 18
1 2 2 2 2 3 3 3 2 2 3 3 3 4 5 5 5 4 4 5 4 4 4 4 4 4 4 4 5 5 5 5 7 7 7 8 10 11 15 18 19 20 20
1 1 2 2 2 2 2 2 2 2 3 3 3 3 4 5 5 4 4 4 4 4 4 4 4 4 5 5 5 6 6 6 7 7 7 8 9 10 12 16 19 20 21
1 1 2 2 2 2 1 1 1 2 3 3 3 3 5 5 5 4 4 4 4 4 4 4 5 5 5 5 6 6 6 7 6 7 8 7 8 10 11 12 13 16 20
1 1 1 2 3 2 2 2 2 3 3 3 3 4 4 4 5 4 4 4 4 4 5 5 5 6 5 4 4 5 6 8 8 8 7 7 7 9 10 11 12 12 13
1 1 1 1 2 2 2 3 3 3 3 3 2 3 4 4 5 5 5 5 5 5 6 6 5 5 5 4 3 3 4 5 6 9 7 7 8 7 8 11 11 11 11
1 0 1 1 2 3 3 2 2 1 1 1 2 2 3 4 4 4 5 5 5 5 6 6 6 7 6 5 5 5 4 5 3 5 7 8 8 7 8 8 10 12 13
1 1 1 1 1 1 2 3 3 3 3 3 3 3 3 3 4 4 4 4 5 5 6 7 6 6 6 6 5 6 6 4 3 3 4 7 8 8 8 8 9 11 12
3 2 1 1 1 1 2 3 4 3 3 2 2 3 4 3 4 4 4 4 4 5 6 6 6 6 6 6 6 5 7 6 6 5 6 5 6 7 8 8 8 8 10
2 1 1 2 2 1 1 2 3 3 3 3 3 4 4 3 3 4 4 4 5 4 5 5 6 7 7 7 7 6 5 5 6 6 7 6 6 6 7 7 8 8 8
Wind_Direction
104 124 140 140 141 138 137 137 134 134 135 138 140 138 135 130 123 121 120 120 119 119 119 120 120 119 116 113 110 106 105 104 104 103 103 104 106 105 103 97 92 92 95
109 124 138 140 143 144 143 139 134 134 136 139 143 144 141 137 132 131 133 130 127 125 123 125 123 123 126 122 118 113 111 110 109 109 110 111 113 111 103 96 93 100 99
105 123 139 142 145 148 149 146 140 138 140 141 145 149 149 146 144 144 142 137 135 133 130 128 127 127 124 125 125 123 120 120 123 125 126 128 125 120 113 105 102 105 104
105 122 138 144 149 151 153 153 151 147 146 147 153 156 158 160 159 159 153 148 146 139 134 133 131 134 132 133 134 133 132 135 145 151 154 147 134 127 124 117 112 111 111
97 121 137 144 153 157 158 161 162 160 156 157 161 164 169 173 174 171 164 157 156 153 149 145 144 143 141 140 143 145 147 157 173 188 178 126 124 136 136 130 126 125 121
104 110 137 147 158 165 166 167 172 171 167 170 174 175 181 184 180 177 172 167 165 163 163 161 158 156 153 153 158 165 169 184 194 208 176 138 135 144 145 142 141 144 142
98 106 137 150 160 169 174 177 176 179 179 183 185 185 186 188 187 184 179 176 175 174 174 176 172 171 173 176 178 183 189 202 209 214 171 147 145 154 158 157 158 159 161
89 101 135 155 163 173 180 183 181 185 188 192 192 192 193 195 196 198 194 189 187 187 189 190 188 189 192 196 199 202 209 219 225 217 176 155 158 166 173 179 178 178 178
84 107 131 157 166 177 185 187 187 192 196 198 199 200 200 203 206 208 206 201 198 197 199 200 201 204 208 211 212 214 220 230 242 224 196 170 172 179 185 191 193 194 195
79 141 155 163 169 177 189 194 193 196 199 201 205 205 205 207 211 213 213 209 205 205 207 208 212 214 216 218 220 221 223 230 236 228 207 181 181 189 196 201 203 203 204
196 183 173 182 179 178 184 194 195 199 201 204 208 208 207 210 212 212 211 210 206 207 211 214 219 219 219 221 224 225 223 226 228 221 205 186 189 198 203 208 210 212 215
205 213 196 189 189 185 181 176 188 199 200 204 210 208 207 213 214 214 204 206 207 208 211 215 219 219 219 218 222 223 221 220 225 213 198 187 200 208 213 214 216 219 222
201 202 206 202 192 177 176 176 186 193 197 205 208 210 207 207 207 206 188 190 198 203 208 213 214 218 218 214 212 214 220 217 219 207 195 192 204 215 220 220 221 223 225
197 198 208 205 190 185 184 189 196 194 205 208 209 213 205 194 197 190 185 186 191 199 200 202 207 217 219 216 212 215 219 218 216 205 198 197 207 219 226 228 228 228 229
192 199 206 210 193 186 196 200 199 207 213 213 205 208 208 198 196 191 192 191 198 203 196 199 213 219 221 217 217 219 219 220 217 211 201 201 206 217 228 232 232 232 232
212 212 204 218 205 185 189 201 207 213 221 218 203 203 209 200 197 193 201 206 205 205 204 206 218 222 224 222 227 227 222 223 223 217 205 205 207 211 224 233 236 238 238
228 215 201 213 205 196 202 207 209 219 221 212 211 209 216 208 200 198 203 210 212 214 209 211 220 221 230 231 233 235 235 229 228 225 215 207 206 213 221 231 237 240 241
223 217 185 207 206 206 209 215 212 217 219 217 214 206 211 216 210 203 205 211 216 219 208 211 214 224 232 232 236 241 240 236 236 232 225 213 205 210 220 229 234 238 241
219 211 179 172 196 202 212 214 214 213 221 226 224 217 212 215 217 211 209 214 212 212 218 222 219 217 232 235 237 238 237 236 235 237 234 223 215 214 214 222 228 234 238
178 193 166 159 190 195 207 222 224 229 230 232 222 228 224 217 215 216 213 216 216 216 221 223 227 223 227 231 245 247 240 236 229 230 231 229 223 221 219 220 223 230 234
158 168 182 178 193 180 191 212 221 235 240 244 237 239 237 225 217 209 219 222 220 221 223 226 233 231 234 225 242 261 256 242 236 232 226 228 230 225 222 222 219 220 228
163 162 222 202 205 190 203 215 221 227 227 227 235 240 241 235 224 221 215 220 220 222 230 232 228 234 238 216 212 239 258 256 244 235 227 228 231 226 224 225 222 221 222
128 77 301 249 232 205 198 208 232 224 224 225 241 241 241 249 234 224 225 220 223 221 229 235 226 226 237 230 211 214 229 240 257 237 229 229 231 228 227 225 224 225 224
90 50 338 268 245 227 203 202 205 216 224 234 231 241 247 243 241 229 234 234 233 230 233 239 238 234 230 236 232 229 235 238 247 262 240 231 232 232 230 232 228 225 225
73 50 351 339 288 243 224 218 217 229 233 233 233 241 246 245 242 234 229 234 239 243 241 240 244 240 233 236 233 233 244 252 246 249 261 248 240 234 232 232 229 227 226
66 32 355 347 327 301 254 247 236 236 241 246 249 245 244 245 246 246 244 239 239 242 247 248 246 243 239 240 238 232 232 236 240 241 252 252 253 249 238 235 232 230 229
Height
1487 1486 1487 1488 1489 1490 1492 1493 1495 1497 1498 1500 1501 1502 1503 1504 1505 1506 1507 1509 1510 1511 1511 1512 1513 1514 1515 1515 1516 1517 1518 1519 1519 1520 1521 1521 1521 1522 1522 1523 1523 1523 1524
1487 1486 1487 1488 1489 1490 1492 1494 1495 1497 1498 1500 1501 1502 1503 1504 1505 1506 1507 1509 1510 1511 1512 1512 1513 1514 1515 1515 1516 1517 1518 1519 1519 1520 1521 1521 1521 1522 1522 1523 1523 1524 1524
1487 1486 1487 1488 1489 1490 1492 1494 1495 1497 1498 1500 1501 1502 1503 1504 1505 1506 1507 1508 1509 1511 1512 1512 1513 1514 1515 1515 1516 1517 1517 1518 1519 1520 1521 1521 1521 1522 1522 1523 1523 1524 1524
1487 1486 1487 1488 1489 1490 1492 1493 1495 1497 1498 1499 1501 1502 1503 1504 1505 1506 1507 1508 1509 1510 1511 1512 1513 1513 1514 1515 1516 1516 1517 1518 1519 1520 1521 1521 1521 1522 1522 1523 1523 1524 1524
1487 1486 1486 1488 1489 1490 1491 1493 1494 1496 1497 1499 1500 1501 1502 1503 1504 1505 1506 1507 1508 1509 1510 1511 1512 1513 1514 1514 1515 1516 1517 1518 1519 1520 1520 1521 1521 1522 1522 1522 1523 1523 1524
1486 1486 1486 1487 1488 1490 1491 1492 1493 1495 1496 1498 1499 1500 1502 1503 1504 1505 1506 1506 1507 1508 1509 1510 1511 1512 1513 1513 1514 1515 1516 1517 1518 1519 1520 1520 1521 1521 1521 1522 1522 1523 1523
1486 1485 1486 1486 1487 1488 1490 1491 1492 1494 1495 1496 1498 1499 1500 1502 1503 1504 1505 1505 1506 1507 1508 1509 1510 1511 1511 1512 1513 1514 1515 1516 1517 1518 1518 1519 1519 1520 1521 1521 1521 1522 1523
1484 1484 1485 1485 1486 1487 1488 1489 1491 1492 1494 1495 1496 1498 1499 1500 1501 1502 1503 1504 1505 1506 1507 1508 1508 1509 1510 1511 1512 1513 1513 1515 1515 1516 1517 1517 1518 1519 1519 1520 1520 1521 1521
1483 1483 1483 1484 1484 1485 1487 1488 1489 1490 1492 1493 1495 1496 1497 1498 1500 1501 1501 1502 1503 1504 1505 1506 1507 1507 1508 1509 1510 1511 1512 1513 1514 1514 1515 1516 1517 1517 1518 1518 1519 1519 1520
1481 1482 1482 1483 1483 1484 1484 1486 1487 1488 1490 1491 1493 1494 1495 1496 1498 1499 1499 1500 1501 1502 1503 1504 1505 1505 1506 1507 1508 1509 1510 1511 1512 1512 1513 1514 1515 1515 1516 1517 1517 1518 1518
1479 1480 1480 1480 1481 1482 1482 1483 1485 1486 1487 1489 1490 1492 1493 1494 1495 1496 1497 1498 1499 1500 1501 1501 1502 1503 1504 1505 1505 1506 1507 1508 1509 1510 1511 1512 1513 1513 1514 1514 1515 1516 1516
1477 1477 1478 1478 1479 1480 1480 1481 1482 1483 1484 1486 1487 1488 1490 1491 1492 1493 1494 1495 1496 1497 1498 1499 1500 1500 1501 1502 1503 1504 1504 1505 1507 1507 1508 1509 1510 1511 1511 1512 1512 1513 1514
1474 1475 1475 1476 1476 1477 1478 1478 1479 1480 1481 1483 1484 1486 1487 1488 1490 1491 1491 1492 1493 1494 1495 1496 1496 1497 1498 1498 1499 1500 1501 1502 1503 1504 1505 1506 1507 1508 1508 1509 1509 1510 1510
1471 1472 1472 1473 1474 1474 1475 1476 1477 1478 1479 1480 1481 1482 1484 1485 1486 1487 1488 1489 1490 1491 1491 1492 1493 1494 1495 1495 1496 1497 1498 1499 1500 1501 1501 1502 1503 1504 1505 1505 1506 1506 1507
1468 1469 1469 1470 1471 1471 1472 1473 1474 1475 1476 1477 1478 1479 1481 1482 1483 1483 1485 1486 1486 1487 1488 1489 1489 1490 1491 1492 1493 1494 1494 1495 1496 1497 1497 1498 1499 1500 1501 1501 1502 1502 1503
1465 1466 1466 1467 1468 1468 1469 1470 1471 1472 1473 1474 1475 1476 1477 1478 1479 1480 1481 1482 1483 1484 1484 1485 1486 1487 1487 1488 1489 1490 1490 1491 1492 1492 1493 1494 1494 1495 1496 1497 1497 1498 1499
1462 1463 1463 1463 1464 1465 1465 1466 1467 1468 1470 1470 1471 1472 1473 1474 1475 1476 1477 1478 1479 1480 1481 1481 1482 1483 1483 1484 1484 1485 1486 1486 1487 1487 1488 1489 1489 1490 1490 1491 1492 1493 1494
1459 1459 1460 1460 1461 1461 1462 1463 1464 1465 1466 1466 1467 1468 1469 1470 1471 1472 1473 1473 1475 1476 1476 1477 1478 1478 1479 1479 1479 1480 1480 1481 1482 1482 1483 1483 1483 1484 1485 1486 1487 1487 1488
1456 1456 1457 1457 1457 1458 1459 1460 1460 1461 1462 1463 1463 1464 1465 1466 1467 1467 1468 1469 1470 1471 1472 1472 1473 1473 1474 1474 1474 1475 1475 1475 1476 1476 1477 1477 1478 1478 1479 1480 1481 1482 1482
1453 1453 1454 1454 1454 1455 1455 1456 1457 1458 1458 1459 1459 1460 1460 1461 1462 1462 1463 1464 1465 1465 1466 1467 1468 1469 1469 1469 1470 1469 1470 1470 1470 1470 1471 1471 1472 1472 1473 1474 1474 1475 1476
1450 1450 1450 1450 1451 1451 1452 1452 1453 1453 1454 1455 1455 1456 1456 1457 1457 1457 1458 1459 1460 1460 1461 1462 1463 1464 1464 1465 1465 1464 1464 1464 1464 1464 1464 1465 1465 1466 1467 1467 1468 1469 1469
1447 1447 1447 1447 1447 1448 1448 1449 1450 1450 1450 1451 1451 1452 1452 1452 1453 1453 1454 1455 1455 1455 1456 1456 1457 1458 1459 1460 1460 1460 1458 1458 1456 1457 1458 1458 1459 1460 1460 1461 1462 1462 1462
1444 1444 1444 1444 1444 1444 1444 1445 1446 1446 1446 1447 1447 1447 1448 1448 1449 1449 1450 1450 1450 1450 1450 1451 1452 1453 1453 1454 1455 1456 1454 1451 1451 1451 1451 1452 1452 1453 1453 1454 1455 1455 1456
1441 1441 1441 1441 1441 1441 1441 1441 1442 1442 1442 1442 1443 1443 1443 1444 1444 1444 1444 1445 1445 1445 1445 1446 1446 1447 1447 1447 1448 1449 1450 1448 1447 1444 1444 1445 1446 1446 1446 1447 1448 1448 1449
1439 1438 1438 1438 1438 1439 1439 1439 1439 1438 1439 1439 1439 1439 1439 1439 1439 1439 1439 1440 1440 1440 1440 1440 1440 1441 1441 1441 1442 1442 1443 1443 1442 1441 1438 1438 1439 1439 1439 1440 1440 1441 1442
1436 1436 1436 1436 1436 1436 1436 1436 1435 1435 1435 1435 1435 1435 1434 1434 1434 1434 1434 1434 1434 1434 1434 1434 1434 1435 1435 1435 1435 1436 1436 1436 1435 1435 1433 1432 1431 1431 1432 1433 1433 1433 1434